| time (UTC) | temp F | wind direction | speed MPH | gust MPH | rain 1hr in | rain 24hr in | rain mn in | humidity % | barometer mb |
| 20260901063128 | 65 | 157 | 0.0 | 1.0 | 0.00 | 0.00 | 0.00 | 64 | 1019.0 |
| 20260901062126 | 66 | 135 | 0.0 | 0.0 | 0.00 | 0.00 | 0.00 | 64 | 1019.0 |
| 20260901061128 | 66 | 135 | 0.0 | 0.0 | 0.00 | 0.00 | 0.00 | 61 | 1018.7 |
| 20260901060127 | 66 | 135 | 0.0 | 0.0 | 0.00 | 0.00 | 0.00 | 60 | 1018.7 |
| 20260901055129 | 66 | 135 | 0.0 | 0.0 | 0.00 | 0.00 | 0.00 | 58 | 1018.7 |
| 20260901054129 | 67 | 135 | 0.0 | 0.0 | 0.00 | 0.00 | 0.00 | 58 | 1018.6 |
| 20260901053127 | 68 | 135 | 0.0 | 0.0 | 0.00 | 0.00 | 0.00 | 56 | 1018.4 |
| 20260901052226 | 68 | 157 | 1.0 | 2.0 | 0.00 | 0.00 | 0.00 | 56 | 1018.3 |
| 20260901051325 | 68 | 157 | 0.0 | 0.0 | 0.00 | 0.00 | 0.00 | 55 | 1018.4 |
| 20260901045328 | 69 | 157 | 0.0 | 0.0 | 0.00 | 0.00 | 0.00 | 55 | 1018.4 |
| 20260901045226 | 69 | 157 | 0.0 | 0.0 | 0.00 | 0.00 | 0.00 | 56 | 1018.4 |
| 20260901044227 | 69 | 157 | 1.0 | 2.0 | 0.00 | 0.00 | 0.00 | 54 | 1018.4 |
| 20260901043229 | 70 | 157 | 0.0 | 1.0 | 0.00 | 0.00 | 0.00 | 53 | 1018.3 |
| 20260901042326 | 71 | 157 | 0.0 | 0.0 | 0.00 | 0.00 | 0.00 | 50 | 1018.0 |
| 20260901041328 | 72 | 157 | 1.0 | 1.0 | 0.00 | 0.00 | 0.00 | 50 | 1017.9 |
| 20260901040328 | 72 | 157 | 0.0 | 2.0 | 0.00 | 0.00 | 0.00 | 48 | 1017.8 |
| 20260901035327 | 73 | 157 | 0.0 | 0.0 | 0.00 | 0.00 | 0.00 | 47 | 1017.7 |
| 20260901034328 | 74 | 180 | 0.0 | 0.0 | 0.00 | 0.00 | 0.00 | 47 | 1017.6 |
| 20260901033327 | 74 | 180 | 0.0 | 0.0 | 0.00 | 0.00 | 0.00 | 47 | 1017.5 |
| 20260901032328 | 76 | 270 | 0.0 | 0.0 | 0.00 | 0.00 | 0.00 | 46 | 1017.2 |
| 20260901031328 | 79 | 225 | 0.0 | 0.0 | 0.00 | 0.00 | 0.00 | 43 | 1017.2 |
| 20260901030328 | 79 | 225 | 4.0 | 7.0 | 0.00 | 0.00 | 0.00 | 40 | 1017.1 |
| 20260901024525 | 80 | 204 | 3.0 | 9.0 | 0.00 | 0.00 | 0.00 | 39 | 1016.9 |
| 20260901022527 | 81 | 223 | 6.0 | 10.0 | 0.00 | 0.00 | 0.00 | 40 | 1016.6 |
| 20260901021529 | 81 | 220 | 7.0 | 12.0 | 0.00 | 0.00 | 0.00 | 40 | 1016.6 |
| 20260901020626 | 81 | 217 | 6.0 | 11.0 | 0.00 | 0.00 | 0.00 | 40 | 1016.5 |
| 20260901014725 | 80 | 225 | 8.0 | 10.0 | 0.00 | 0.00 | 0.00 | 37 | 1016.4 |
| 20260901013727 | 80 | 225 | 5.0 | 7.0 | 0.00 | 0.00 | 0.00 | 41 | 1016.3 |
| 20260901012728 | 80 | 45 | 0.0 | 0.0 | 0.00 | 0.00 | 0.00 | 41 | 1016.3 |
| 20260901011728 | 79 | 45 | 0.0 | 0.0 | 0.00 | 0.00 | 0.00 | 41 | 1016.3 |
| 20260901010826 | 79 | 45 | 0.0 | 0.0 | 0.00 | 0.00 | 0.00 | 44 | 1016.3 |
| 20260901005828 | 78 | 45 | 3.0 | 3.0 | 0.00 | 0.00 | 0.00 | 45 | 1016.4 |
| 20260901004829 | 80 | 45 | 5.0 | 7.0 | 0.00 | 0.00 | 0.00 | 47 | 1016.4 |
| 20260901003927 | 83 | 45 | 7.0 | 8.0 | 0.00 | 0.00 | 0.00 | 40 | 1016.4 |
| 20260901002928 | 85 | 45 | 8.0 | 10.0 | 0.00 | 0.00 | 0.00 | 27 | 1016.4 |
| 20260901002027 | 84 | 44 | 8.0 | 12.0 | 0.00 | 0.00 | 0.00 | 30 | 1016.4 |
| 20260901000027 | 83 | 45 | 9.0 | 12.0 | 0.00 | 0.00 | 0.00 | 32 | 1016.5 |
| 20260831235126 | 80 | 45 | 9.0 | 13.0 | 0.00 | 0.00 | 0.00 | 40 | 1016.5 |
| 20260831233226 | 82 | 46 | 10.0 | 15.0 | 0.00 | 0.00 | 0.00 | 32 | 1016.6 |
| 20260831232228 | 83 | 46 | 11.0 | 14.0 | 0.00 | 0.00 | 0.00 | 30 | 1016.6 |
| 20260831231227 | 83 | 45 | 11.0 | 17.0 | 0.00 | 0.00 | 0.00 | 31 | 1016.7 |
| 20260831230227 | 82 | 45 | 11.0 | 16.0 | 0.00 | 0.00 | 0.00 | 32 | 1016.8 |
| 20260831224227 | 82 | 45 | 10.0 | 16.0 | 0.00 | 0.00 | 0.00 | 29 | 1017.3 |
| 20260831223226 | 82 | 46 | 10.0 | 15.0 | 0.00 | 0.00 | 0.00 | 31 | 1017.3 |
| 20260831222226 | 81 | 40 | 10.0 | 14.0 | 0.00 | 0.00 | 0.00 | 32 | 1017.5 |
| 20260831221227 | 81 | 46 | 9.0 | 16.0 | 0.00 | 0.00 | 0.00 | 34 | 1017.6 |
| 20260831221128 | 81 | 49 | 10.0 | 16.0 | 0.00 | 0.00 | 0.00 | 33 | 1017.6 |
| 20260831220127 | 81 | 46 | 13.0 | 22.0 | 0.00 | 0.00 | 0.00 | 31 | 1017.6 |
| 20260831215126 | 78 | 45 | 12.0 | 15.0 | 0.00 | 0.00 | 0.00 | 42 | 1017.8 |
| 20260831214129 | 79 | 46 | 14.0 | 18.0 | 0.00 | 0.00 | 0.00 | 39 | 1017.8 |
| 20260831213225 | 79 | 46 | 13.0 | 20.0 | 0.00 | 0.00 | 0.00 | 36 | 1018.1 |
| 20260831212229 | 79 | 49 | 15.0 | 20.0 | 0.00 | 0.00 | 0.00 | 35 | 1018.3 |
| 20260831211326 | 79 | 46 | 13.0 | 20.0 | 0.00 | 0.00 | 0.00 | 34 | 1018.5 |
| 20260831210328 | 79 | 45 | 16.0 | 26.0 | 0.00 | 0.00 | 0.00 | 34 | 1018.4 |
| 20260831205426 | 78 | 46 | 14.0 | 19.0 | 0.00 | 0.00 | 0.00 | 34 | 1018.3 |
| 20260831203427 | 78 | 44 | 15.0 | 22.0 | 0.00 | 0.00 | 0.00 | 34 | 1018.8 |
| 20260831202427 | 77 | 46 | 11.0 | 19.0 | 0.00 | 0.00 | 0.00 | 37 | 1018.9 |
| 20260831201447 | 76 | 46 | 15.0 | 24.0 | 0.00 | 0.00 | 0.00 | 40 | 1019.0 |
| 20260831201326 | 76 | 46 | 15.0 | 22.0 | 0.00 | 0.00 | 0.00 | 39 | 1019.0 |
| 20260831200326 | 75 | 44 | 14.0 | 18.0 | 0.00 | 0.00 | 0.00 | 40 | 1019.2 |
| 20260831195425 | 75 | 46 | 15.0 | 24.0 | 0.00 | 0.00 | 0.00 | 41 | 1019.4 |
| 20260831194428 | 75 | 46 | 14.0 | 22.0 | 0.00 | 0.00 | 0.00 | 41 | 1019.7 |
| 20260831194326 | 74 | 45 | 13.0 | 21.0 | 0.00 | 0.00 | 0.00 | 42 | 1019.7 |
| 20260831193326 | 74 | 46 | 16.0 | 24.0 | 0.00 | 0.00 | 0.00 | 40 | 1019.4 |
| 20260831193225 | 74 | 46 | 16.0 | 25.0 | 0.00 | 0.00 | 0.00 | 41 | 1019.5 |
| 20260831192228 | 74 | 46 | 15.0 | 25.0 | 0.00 | 0.00 | 0.00 | 41 | 1019.8 |
| 20260831190327 | 73 | 45 | 16.0 | 23.0 | 0.00 | 0.00 | 0.00 | 41 | 1020.3 |
| 20260831185328 | 73 | 46 | 15.0 | 21.0 | 0.00 | 0.00 | 0.00 | 41 | 1020.3 |
| 20260831183427 | 73 | 46 | 15.0 | 27.0 | 0.00 | 0.00 | 0.00 | 43 | 1020.7 |
| 20260831183327 | 72 | 44 | 13.0 | 19.0 | 0.00 | 0.00 | 0.00 | 44 | 1020.8 |
| 20260831181426 | 72 | 47 | 13.0 | 21.0 | 0.00 | 0.00 | 0.00 | 45 | 1020.9 |
| 20260831180327 | 71 | 47 | 15.0 | 21.0 | 0.00 | 0.00 | 0.00 | 47 | 1020.9 |
| 20260831175326 | 71 | 42 | 12.0 | 23.0 | 0.00 | 0.00 | 0.00 | 48 | 1021.2 |
| 20260831174426 | 70 | 46 | 15.0 | 22.0 | 0.00 | 0.00 | 0.00 | 47 | 1021.3 |
| 20260831173426 | 70 | 44 | 12.0 | 18.0 | 0.00 | 0.00 | 0.00 | 47 | 1021.5 |
| 20260831172428 | 70 | 44 | 16.0 | 20.0 | 0.00 | 0.00 | 0.00 | 47 | 1021.3 |
| 20260831171426 | 70 | 46 | 11.0 | 18.0 | 0.00 | 0.00 | 0.00 | 47 | 1021.5 |
| 20260831170425 | 69 | 47 | 10.0 | 17.0 | 0.00 | 0.00 | 0.00 | 48 | 1021.7 |
| 20260831165426 | 69 | 45 | 11.0 | 16.0 | 0.00 | 0.00 | 0.00 | 49 | 1021.7 |
| 20260831164427 | 68 | 68 | 7.0 | 10.0 | 0.00 | 0.00 | 0.00 | 51 | 1021.9 |
| 20260831163525 | 67 | 43 | 7.0 | 13.0 | 0.00 | 0.00 | 0.00 | 54 | 1021.9 |
| 20260831161527 | 64 | 45 | 23.0 | 30.0 | 0.00 | 0.00 | 0.00 | 69 | 1021.8 |
| 20260831155526 | 62 | 46 | 19.0 | 29.0 | 0.00 | 0.00 | 0.00 | 71 | 1022.4 |
| 20260831154528 | 62 | 46 | 21.0 | 28.0 | 0.00 | 0.00 | 0.00 | 69 | 1022.4 |
| 20260831153528 | 62 | 48 | 12.0 | 21.0 | 0.00 | 0.00 | 0.00 | 69 | 1022.7 |
| 20260831152527 | 61 | 44 | 15.0 | 21.0 | 0.00 | 0.00 | 0.00 | 69 | 1022.9 |
| 20260831151627 | 61 | 66 | 7.0 | 11.0 | 0.00 | 0.00 | 0.00 | 70 | 1023.0 |
| 20260831143726 | 59 | 48 | 4.0 | 8.0 | 0.00 | 0.00 | 0.00 | 74 | 1023.4 |
| 20260831142726 | 59 | 46 | 5.0 | 10.0 | 0.00 | 0.00 | 0.00 | 74 | 1023.4 |
| 20260831141726 | 59 | 43 | 12.0 | 18.0 | 0.00 | 0.00 | 0.00 | 74 | 1023.2 |
| 20260831140728 | 59 | 49 | 10.0 | 17.0 | 0.00 | 0.00 | 0.00 | 76 | 1023.2 |
| 20260831135827 | 59 | 43 | 12.0 | 18.0 | 0.00 | 0.00 | 0.00 | 76 | 1023.1 |
| 20260831134827 | 58 | 44 | 12.0 | 19.0 | 0.00 | 0.00 | 0.00 | 75 | 1023.2 |
| 20260831133926 | 58 | 82 | 5.0 | 9.0 | 0.00 | 0.00 | 0.00 | 76 | 1023.5 |
| 20260831132927 | 58 | 54 | 7.0 | 10.0 | 0.00 | 0.00 | 0.00 | 76 | 1023.3 |
| 20260831131927 | 58 | 93 | 3.0 | 7.0 | 0.00 | 0.00 | 0.00 | 77 | 1023.4 |
| 20260831130927 | 57 | 86 | 4.0 | 12.0 | 0.00 | 0.00 | 0.00 | 77 | 1023.5 |
| 20260831124926 | 58 | 64 | 5.0 | 11.0 | 0.00 | 0.00 | 0.00 | 78 | 1023.5 |
| 20260831122929 | 57 | 30 | 5.0 | 7.0 | 0.00 | 0.00 | 0.00 | 80 | 1023.6 |
| 20260831122026 | 57 | 18 | 4.0 | 8.0 | 0.00 | 0.00 | 0.00 | 79 | 1023.7 |
| 20260831121026 | 57 | 91 | 2.0 | 4.0 | 0.00 | 0.00 | 0.00 | 82 | 1023.8 |
| 20260831120027 | 56 | 339 | 2.0 | 5.0 | 0.00 | 0.00 | 0.00 | 84 | 1023.8 |
| 20260831115026 | 55 | 90 | 2.0 | 3.0 | 0.00 | 0.00 | 0.00 | 84 | 1023.9 |
| 20260831114027 | 55 | 90 | 0.0 | 0.0 | 0.00 | 0.00 | 0.00 | 84 | 1024.1 |
| 20260831113026 | 55 | 90 | 0.0 | 0.0 | 0.00 | 0.00 | 0.00 | 83 | 1023.8 |
| 20260831112927 | 55 | 90 | 0.0 | 0.0 | 0.00 | 0.00 | 0.00 | 84 | 1023.9 |
| 20260831111926 | 55 | 90 | 0.0 | 0.0 | 0.00 | 0.00 | 0.00 | 84 | 1024.1 |
| 20260831111025 | 55 | 90 | 2.0 | 2.0 | 0.00 | 0.00 | 0.00 | 84 | 1024.2 |
| 20260831110026 | 55 | 90 | 0.0 | 0.0 | 0.00 | 0.00 | 0.00 | 82 | 1024.1 |
| 20260831105027 | 56 | 90 | 0.0 | 0.0 | 0.00 | 0.00 | 0.00 | 83 | 1024.2 |
| 20260831103125 | 55 | 90 | 0.0 | 0.0 | 0.00 | 0.00 | 0.00 | 83 | 1024.3 |
| 20260831102127 | 56 | 90 | 0.0 | 0.0 | 0.00 | 0.00 | 0.00 | 82 | 1024.1 |
| 20260831101225 | 56 | 90 | 0.0 | 1.0 | 0.00 | 0.00 | 0.00 | 83 | 1024.4 |
| 20260831100229 | 55 | 89 | 2.0 | 3.0 | 0.00 | 0.00 | 0.00 | 83 | 1024.4 |
| 20260831100127 | 55 | 62 | 1.0 | 3.0 | 0.00 | 0.00 | 0.00 | 83 | 1024.4 |
| 20260831095126 | 55 | 112 | 2.0 | 2.0 | 0.00 | 0.00 | 0.00 | 82 | 1024.5 |
| 20260831094225 | 56 | 112 | 0.0 | 1.0 | 0.00 | 0.00 | 0.00 | 81 | 1024.5 |
| 20260831093227 | 56 | 112 | 2.0 | 3.0 | 0.00 | 0.00 | 0.00 | 82 | 1024.8 |
| 20260831093126 | 56 | 112 | 2.0 | 3.0 | 0.00 | 0.00 | 0.00 | 82 | 1024.6 |
| 20260831092127 | 56 | 67 | 1.0 | 2.0 | 0.00 | 0.00 | 0.00 | 80 | 1024.8 |
| 20260831090225 | 56 | 67 | 2.0 | 3.0 | 0.00 | 0.00 | 0.00 | 79 | 1024.8 |
| 20260831085226 | 57 | 45 | 0.0 | 0.0 | 0.00 | 0.00 | 0.00 | 79 | 1025.0 |
| 20260831083325 | 56 | 67 | 2.0 | 3.0 | 0.00 | 0.00 | 0.00 | 79 | 1025.0 |
| 20260831081327 | 57 | 67 | 2.0 | 3.0 | 0.00 | 0.00 | 0.00 | 78 | 1025.3 |
| 20260831080326 | 57 | 67 | 1.0 | 2.0 | 0.00 | 0.00 | 0.00 | 77 | 1025.4 |
| 20260831074326 | 57 | 67 | 0.0 | 0.0 | 0.00 | 0.00 | 0.00 | 76 | 1025.5 |
| 20260831073328 | 58 | 67 | 1.0 | 2.0 | 0.00 | 0.00 | 0.00 | 75 | 1025.5 |
| 20260831072327 | 58 | 67 | 1.0 | 1.0 | 0.00 | 0.00 | 0.00 | 76 | 1025.8 |
| 20260831071328 | 58 | 67 | 0.0 | 0.0 | 0.00 | 0.00 | 0.00 | 75 | 1025.7 |
| 20260831070326 | 58 | 67 | 0.0 | 0.0 | 0.00 | 0.00 | 0.00 | 73 | 1025.8 |
| 20260831065410 | 58 | 67 | 0.0 | 0.0 | 0.00 | 0.00 | 0.00 | 74 | 1025.8 |
| 20260831064411 | 58 | 67 | 0.0 | 0.0 | 0.00 | 0.00 | 0.00 | 73 | 1025.9 |